Location: American Medical Response
(33.3472°N, 96.5511°W)
Time: 12:28:28
(UTC+00:00)

SL-4 R/B - Visible Passes

Search period start: 03 July 2022 00:00
Search period end: 13 July 2022 00:00
Orbit: 426 x 654 km, 51.6° (Epoch: 02 July)

Date Brightness Start Highest point End Pass type
(mag) Time Alt. Az. Time Alt. Az. Time Alt. Az.
03 Jul 5.1 06:47:12 10° NNE 06:47:12 10° NNE 06:47:16 10° NNE visible
04 Jul 5.1 06:38:21 10° NNE 06:38:21 10° NNE 06:38:23 10° NNE visible
05 Jul 5.2 06:29:24 10° NNE 06:29:24 10° NNE 06:29:25 10° NNE visible
06 Jul 5.2 06:20:21 10° N 06:20:21 10° N 06:20:21 10° N visible
07 Jul 5.2 06:11:06 10° N 06:11:06 10° N 06:11:07 10° N visible
09 Jul 4.2 04:15:17 14° NNE 04:15:17 14° NNE 04:15:52 10° NNE visible
09 Jul 3.2 10:51:32 10° NW 10:55:24 47° NE 10:59:34 10° ESE visible
10 Jul 2.8 02:22:12 10° S 02:24:43 19° SE 02:27:14 10° E visible
10 Jul 3.5 04:00:54 10° W 04:03:56 30° NW 04:07:01 10° NNE visible
10 Jul 5.3 09:05:18 10° N 09:06:43 12° NNE 09:08:09 10° NE visible
10 Jul 2.6 10:42:46 10° NW 10:46:43 63° NE 10:50:59 10° SE visible
11 Jul 2.4 02:13:01 10° S 02:15:57 27° SE 02:18:53 10° ENE visible
11 Jul 4.0 03:52:33 10° W 03:55:19 23° NW 03:58:08 10° NNE visible
11 Jul 5.1 08:56:06 10° N 08:58:09 14° NNE 09:00:16 10° ENE visible
11 Jul 2.0 10:34:03 10° NW 10:38:00 85° NE 10:42:18 10° SE visible
12 Jul 1.9 02:04:01 10° SSW 02:07:12 39° SE 02:10:24 10° ENE visible
12 Jul 4.5 03:44:18 10° WNW 03:46:43 18° NNW 03:49:10 10° NNE visible
12 Jul 4.9 08:47:03 10° N 08:49:35 17° NNE 08:52:12 10° ENE visible
12 Jul 1.9 10:25:23 10° NW 10:29:18 71° SW 10:33:32 10° SE visible
